FOX-1B (AO-91) (43017 NORAD) Tracking and Keplerian Element Data

This shows tracking and keplerian element data for the satellite.

Feedback or suggestion? Click here.




ElementValue
Catalog43017
NameFOX-1B (AO-91)
Epoch Orbit3562
Epoch Day198.74423903
Epoch Year2018
RAAN128.6055
Inclination97.7073
Eccentricity0.0259805
Argument of Perigee171.8414
Mean Anonmoly188.7151
Mean Motion14.78107473
Decay Rate2.87E-06
L11 43017U 17073E 18198.74423903 .00000287 00000-0 28016-4 0 9990
L22 43017 97.7073 128.6055 0259805 171.8414 188.7151 14.78107473 35621

Live tracking and technical data element details for FOX-1B (AO-91) (NORAD 43017). FOX-1B (AO-91) can be tracked NOW for your location showing map with azimuth and elevation plus other details from your city location.

Track the satellite on the map from your city or location and see movement details for azimuth, elevation, latitude, longitude, range, height, and movement on the map or in text.







IsCatalogInMostPopularTable: catalog: 43017, numindb: 209
Update: records affected: 1



GetName: 43017 FOX-1B (AO-91)

Hit Count: updated at: Wed, 18 Jul 2018 20:21:17 GMT